This is the latest recevied weather packets stored in our database for station/object OE-11307. If no packets are shown the sender has not sent any weather packets the latest 10 day(s).
| Time | Temp. | Humidity | Pressure | Rain* | Wind** | Luminosity | Snow |
|---|---|---|---|---|---|---|---|
| 1787745313 | 22.22° C | 52% | 853.8 hPa | 0 mm | - | 775 W/m² | - |
| 1787744486 | 22.22° C | 53% | 853.7 hPa | 0 mm | - | 825 W/m² | - |
| 1787744114 | 21.67° C | 52% | 853.8 hPa | 0 mm | - | 781 W/m² | - |
| 1787743514 | 21.67° C | 53% | 853.9 hPa | 0 mm | - | 756 W/m² | - |
| 1787742687 | 22.22° C | 55% | 853.9 hPa | 0 mm | - | 794 W/m² | - |
| 1787742313 | 21.67° C | 53% | 853.9 hPa | 0 mm | - | 756 W/m² | - |
| 1787741713 | 21.67° C | 54% | 853.9 hPa | 0 mm | - | 807 W/m² | - |
| 1787740887 | 21.67° C | 51% | 853.9 hPa | 0 mm | - | 794 W/m² | - |
| 1787740514 | 21.67° C | 50% | 854 hPa | 0 mm | - | 781 W/m² | - |
| 1787739914 | 21.67° C | 51% | 854.1 hPa | 0 mm | - | 775 W/m² | - |
| 1787739086 | 21.67° C | 52% | 854 hPa | 0 mm | - | 769 W/m² | - |
| 1787738714 | 21.11° C | 53% | 854 hPa | 0 mm | - | 762 W/m² | - |
| 1787738114 | 21.67° C | 55% | 854.2 hPa | 0 mm | - | 756 W/m² | - |
| 1787737287 | 21.67° C | 54% | 854.3 hPa | 0 mm | - | 731 W/m² | - |
| 1787736913 | 21.11° C | 48% | 854.3 hPa | 0 mm | - | 718 W/m² | - |
| 1787736314 | 20.56° C | 50% | 854.2 hPa | 0 mm | - | 693 W/m² | - |
| 1787735487 | 20.56° C | 58% | 854.2 hPa | 0 mm | - | 674 W/m² | - |
| 1787735114 | 20° C | 61% | 854.2 hPa | 0 mm | - | 649 W/m² | - |
| 1787733687 | 20° C | 62% | 854.2 hPa | 0 mm | - | 611 W/m² | - |
| 1787733314 | 19.44° C | 63% | 854.2 hPa | 0 mm | - | 586 W/m² | - |
| 1787732714 | 18.33° C | 68% | 854.1 hPa | 0 mm | - | 554 W/m² | - |
| 1787731887 | 19.44° C | 64% | 854.1 hPa | 0 mm | - | 542 W/m² | - |
| 1787731514 | 18.89° C | 67% | 854.1 hPa | 0 mm | - | 504 W/m² | - |
| 1787730914 | 18.89° C | 73% | 854 hPa | 0 mm | - | 384 W/m² | - |
| 1787730087 | 17.78° C | 74% | 853.8 hPa | 0 mm | - | 485 W/m² | - |
* Rain latest hour (hover to see other rain measurements)
** Current wind speed in m/s (hover to see current wind gust speed)